Location: Newark
(34.3481°N, 134.0494°E)
Time: 18:25:40
(UTC+00:00)

Tiros 1 despin weight - All Passes

Search period start: 21 January 2020 00:00
Search period end: 31 January 2020 00:00
Orbit: 593 x 643 km, 48.2° (Epoch: 20 January)

Date Brightness Start Highest point End Pass type
(mag) Time Alt. Az. Time Alt. Az. Time Alt. Az.
21 Jan - 02:10:03 10° S 02:13:40 24° SE 02:17:20 10° ENE daylight
21 Jan - 03:50:32 10° WSW 03:54:57 53° NNW 03:59:29 10° NE daylight
21 Jan - 05:34:09 10° WNW 05:37:19 18° NNW 05:40:32 10° NNE daylight
21 Jan - 07:17:39 10° NNW 07:20:21 15° N 07:23:04 10° NE daylight
21 Jan - 08:58:54 10° NW 09:03:05 31° NNE 09:07:15 10° E visible
21 Jan - 10:40:15 10° WNW 10:44:50 55° SW 10:49:24 10° SE visible
22 Jan - 02:25:39 10° SSW 02:30:00 51° SE 02:34:26 10° ENE daylight
22 Jan - 04:07:39 10° W 04:11:43 31° NNW 04:15:50 10° NE daylight
22 Jan - 05:51:45 10° NW 05:54:26 15° N 05:57:07 10° NNE daylight
22 Jan - 07:34:14 10° NNW 07:37:26 18° NNE 07:40:40 10° ENE daylight
22 Jan - 09:15:15 10° NW 09:19:50 52° NNE 09:24:25 10° ESE visible
22 Jan - 10:57:18 10° WNW 11:01:12 26° SW 11:05:06 10° S visible
23 Jan - 01:02:49 10° SSE 01:05:25 15° SE 01:08:03 10° E daylight
23 Jan - 02:42:00 10° WSW 02:46:29 78° NW 02:51:04 10° NE daylight
23 Jan - 04:25:07 10° WNW 04:28:37 21° NNW 04:32:10 10° NNE daylight
23 Jan - 06:09:02 10° NNW 06:11:34 14° N 06:14:07 10° NE daylight
23 Jan - 07:50:36 10° NNW 07:54:26 24° NNE 07:58:16 10° ENE daylight
23 Jan - 09:31:44 10° NW 09:36:26 83° SW 09:41:07 10° SE visible
23 Jan - 11:15:36 10° WSW 11:17:26 12° SW 11:19:16 10° SSW visible
24 Jan - 01:17:41 10° SSW 01:21:40 33° SE 01:25:45 10° ENE daylight
24 Jan - 02:58:52 10° WSW 03:03:09 41° NNW 03:07:30 10° NE daylight
24 Jan - 04:42:46 10° NW 04:45:40 16° N 04:48:35 10° NNE daylight
24 Jan - 06:25:50 10° NNW 06:28:42 16° N 06:31:34 10° NE daylight
24 Jan - 08:06:55 10° NW 08:11:17 38° NNE 08:15:39 10° E daylight
24 Jan - 09:48:30 10° WNW 09:52:53 40° SW 09:57:14 10° SSE visible
25 Jan - 01:33:38 10° SW 01:38:05 70° SE 01:42:36 10° ENE daylight
25 Jan - 03:16:10 10° W 03:19:58 26° NNW 03:23:50 10° NE daylight
25 Jan - 05:00:16 10° NW 05:02:47 14° N 05:05:19 10° NNE daylight
25 Jan - 06:42:18 10° NNW 06:45:45 20° NNE 06:49:13 10° ENE daylight
25 Jan - 08:23:19 10° NW 08:27:58 68° NE 08:32:38 10° ESE daylight
25 Jan - 10:05:51 10° W 10:09:11 19° SW 10:12:30 10° S visible
26 Jan - 00:10:03 10° S 00:13:24 21° SE 00:16:48 10° E daylight
26 Jan - 01:50:13 10° WSW 01:54:38 59° NW 01:59:08 10° NE daylight
26 Jan - 03:33:44 10° WNW 03:36:56 19° NNW 03:40:10 10° NNE daylight
26 Jan - 05:17:20 10° NNW 05:19:56 15° N 05:22:31 10° NE daylight
26 Jan - 06:58:38 10° NW 07:02:40 29° NNE 07:06:45 10° E daylight
26 Jan - 08:39:53 10° WNW 08:44:30 62° SW 08:49:07 10° SE daylight
27 Jan - 00:25:29 10° SSW 00:29:43 45° SE 00:34:02 10° ENE daylight
27 Jan - 02:07:17 10° W 02:11:21 33° NNW 02:15:31 10° NE daylight
27 Jan - 03:51:21 10° NW 03:54:00 15° N 03:56:41 10° NNE daylight
27 Jan - 05:33:58 10° NNW 05:37:01 17° NNE 05:40:06 10° NE daylight
27 Jan - 07:14:57 10° NW 07:19:27 47° NNE 07:23:59 10° ESE daylight
27 Jan - 08:56:51 10° WNW 09:00:53 29° SW 09:04:56 10° SSE visible
27 Jan - 23:03:05 10° SSE 23:05:11 13° SE 23:07:17 10° E daylight
28 Jan - 00:41:44 10° SW 00:46:11 86° NW 00:50:43 10° NE daylight
28 Jan - 02:24:43 10° WNW 02:28:14 22° NNW 02:31:49 10° NNE daylight
28 Jan - 04:08:42 10° NNW 04:11:09 14° N 04:13:35 10° NNE daylight
28 Jan - 05:50:21 10° NNW 05:54:01 23° NNE 05:57:45 10° ENE daylight
28 Jan - 07:31:25 10° NW 07:36:05 89° NE 07:40:46 10° SE daylight
28 Jan - 09:14:46 10° W 09:17:09 14° SW 09:19:31 10° SSW visible
28 Jan - 23:17:36 10° SSW 23:21:25 29° SE 23:25:17 10° ENE daylight
29 Jan - 00:58:32 10° WSW 01:02:49 45° NNW 01:07:10 10° NE daylight
29 Jan - 02:42:20 10° NW 02:45:15 17° NNW 02:48:12 10° NNE daylight
29 Jan - 04:25:35 10° NNW 04:28:16 15° N 04:31:00 10° NE daylight
29 Jan - 06:06:40 10° NW 06:10:54 35° NNE 06:15:10 10° E daylight
29 Jan - 07:48:07 10° WNW 07:52:33 45° SW 07:57:00 10° SSE daylight
29 Jan - 23:33:26 10° SW 23:37:47 62° SE 23:42:14 10° ENE daylight
30 Jan - 01:15:46 10° W 01:19:36 27° NNW 01:23:30 10° NE daylight
30 Jan - 02:59:55 10° NW 03:02:22 14° N 03:04:51 10° NNE daylight
30 Jan - 04:42:03 10° NNW 04:45:20 19° NNE 04:48:39 10° ENE daylight
30 Jan - 06:23:01 10° NW 06:27:36 61° NE 06:32:13 10° ESE daylight
30 Jan - 08:05:20 10° W 08:08:52 22° SW 08:12:25 10° S daylight
30 Jan - 22:10:07 10° S 22:13:10 18° SE 22:16:14 10° E daylight
30 Jan - 23:49:55 10° WSW 23:54:19 65° NW 23:58:48 10° NE daylight
